Time,TemperatureF,DewpointF,PressureIn,WindDirection,WindDirectionDegrees,WindSpeedMPH,WindSpeedGustMPH,Humidity,HourlyPrecipIn,Conditions,Clouds,dailyrainin,SoftwareType,DateUTC
2013-08-10 00:00:00,62.9,57.7,30.11,East,86,0.0,1.0,83,0.00,,,0.00,Wunderground v.1.15,2013-08-10 05:00:00,
2013-08-10 00:10:00,62.5,57.6,30.11,East,86,0.0,1.0,84,0.00,,,0.00,Wunderground v.1.15,2013-08-10 05:10:00,
2013-08-10 00:15:00,62.3,57.4,30.11,East,86,0.0,1.0,84,0.00,,,0.00,Wunderground v.1.15,2013-08-10 05:15:00,
2013-08-10 00:25:00,62.2,57.3,30.11,East,86,0.0,1.0,84,0.00,,,0.00,Wunderground v.1.15,2013-08-10 05:25:00,
2013-08-10 00:35:00,62.3,57.7,30.11,East,86,0.0,1.0,85,0.00,,,0.00,Wunderground v.1.15,2013-08-10 05:35:00,
2013-08-10 00:40:00,62.3,57.7,30.11,East,86,0.0,1.0,85,0.00,,,0.00,Wunderground v.1.15,2013-08-10 05:40:00,
2013-08-10 00:50:00,62.2,57.6,30.11,East,86,0.0,1.0,85,0.00,,,0.00,Wunderground v.1.15,2013-08-10 05:50:00,
2013-08-10 01:00:00,62.6,58.4,30.11,East,86,0.0,1.0,86,0.00,,,0.00,Wunderground v.1.15,2013-08-10 06:00:00,
2013-08-10 01:05:00,62.9,58.6,30.11,East,86,0.0,1.0,86,0.00,,,0.00,Wunderground v.1.15,2013-08-10 06:05:00,
2013-08-10 01:10:00,63.0,58.7,30.11,East,86,0.0,1.0,86,0.00,,,0.00,Wunderground v.1.15,2013-08-10 06:10:00,
2013-08-10 01:20:00,63.1,58.8,30.11,East,86,0.0,1.0,86,0.00,,,0.00,Wunderground v.1.15,2013-08-10 06:20:00,
2013-08-10 01:30:00,63.3,59.0,30.11,East,86,0.0,1.0,86,0.00,,,0.00,Wunderground v.1.15,2013-08-10 06:30:00,
2013-08-10 01:40:00,63.7,59.4,30.12,SSW,194,1.0,1.0,86,0.00,,,0.00,Wunderground v.1.15,2013-08-10 06:40:00,
2013-08-10 01:50:00,63.8,59.5,30.12,SSW,194,0.0,1.0,86,0.00,,,0.00,Wunderground v.1.15,2013-08-10 06:50:00,
2013-08-10 02:00:00,63.8,59.5,30.12,SE,125,0.0,1.0,86,0.00,,,0.00,Wunderground v.1.15,2013-08-10 07:00:00,
2013-08-10 02:05:00,63.8,59.5,30.12,SE,125,1.0,1.0,86,0.00,,,0.00,Wunderground v.1.15,2013-08-10 07:05:00,
2013-08-10 02:15:00,63.8,59.5,30.12,SSW,205,1.0,1.0,86,0.00,,,0.00,Wunderground v.1.15,2013-08-10 07:15:00,
2013-08-10 02:20:00,63.6,59.3,30.12,SSW,205,1.0,1.0,86,0.00,,,0.00,Wunderground v.1.15,2013-08-10 07:20:00,
2013-08-10 02:30:00,63.7,59.8,30.12,South,177,0.0,1.0,87,0.00,,,0.00,Wunderground v.1.15,2013-08-10 07:30:00,
2013-08-10 02:40:00,63.8,59.9,30.12,SSE,163,0.0,1.0,87,0.00,,,0.00,Wunderground v.1.15,2013-08-10 07:40:00,
2013-08-10 02:45:00,63.8,59.9,30.12,SSE,163,0.0,1.0,87,0.00,,,0.00,Wunderground v.1.15,2013-08-10 07:45:00,
2013-08-10 02:55:00,63.6,59.7,30.11,SSE,163,0.0,1.0,87,0.00,,,0.00,Wunderground v.1.15,2013-08-10 07:55:00,
2013-08-10 03:00:00,63.6,59.7,30.12,SSE,163,0.0,1.0,87,0.00,,,0.00,Wunderground v.1.15,2013-08-10 08:00:00,
2013-08-10 03:10:00,63.4,59.5,30.12,South,169,0.0,1.0,87,0.00,,,0.00,Wunderground v.1.15,2013-08-10 08:10:00,
2013-08-10 03:20:00,63.5,59.6,30.13,South,169,0.0,1.0,87,0.00,,,0.00,Wunderground v.1.15,2013-08-10 08:20:00,
2013-08-10 03:30:00,63.6,59.7,30.13,South,189,1.0,1.0,87,0.00,,,0.00,Wunderground v.1.15,2013-08-10 08:30:00,
2013-08-10 03:35:00,63.7,59.8,30.13,South,188,2.0,3.0,87,0.00,,,0.00,Wunderground v.1.15,2013-08-10 08:35:00,
2013-08-10 03:40:00,63.8,59.9,30.13,SSW,200,3.0,3.0,87,0.00,,,0.00,Wunderground v.1.15,2013-08-10 08:40:00,
2013-08-10 03:50:00,63.8,59.9,30.13,SSW,201,2.0,2.0,87,0.00,,,0.00,Wunderground v.1.15,2013-08-10 08:50:00,
2013-08-10 04:00:00,63.8,59.9,30.13,SSW,201,0.0,1.0,87,0.00,,,0.00,Wunderground v.1.15,2013-08-10 09:00:00,
2013-08-10 04:10:00,63.7,59.8,30.13,SSW,200,1.0,1.0,87,0.26,,,0.04,Wunderground v.1.15,2013-08-10 09:10:00,
2013-08-10 04:20:00,63.2,59.3,30.12,South,175,2.0,4.0,87,0.06,,,0.05,Wunderground v.1.15,2013-08-10 09:20:00,
2013-08-10 04:25:00,62.9,59.0,30.12,South,177,3.0,4.0,87,0.04,,,0.05,Wunderground v.1.15,2013-08-10 09:25:00,
2013-08-10 04:35:00,62.4,58.8,30.12,SSE,165,3.0,3.0,88,0.00,,,0.05,Wunderground v.1.15,2013-08-10 09:35:00,
2013-08-10 04:45:00,62.2,58.6,30.11,South,169,3.0,3.0,88,0.00,,,0.05,Wunderground v.1.15,2013-08-10 09:45:00,
2013-08-10 04:50:00,62.0,58.4,30.11,South,169,2.0,2.0,88,0.00,,,0.05,Wunderground v.1.15,2013-08-10 09:50:00,
2013-08-10 05:00:00,61.8,58.2,30.12,South,171,2.0,2.0,88,0.00,,,0.05,Wunderground v.1.15,2013-08-10 10:00:00,
2013-08-10 05:10:00,61.6,58.0,30.12,South,171,0.0,1.0,88,0.00,,,0.05,Wunderground v.1.15,2013-08-10 10:10:00,
2013-08-10 05:20:00,61.7,58.4,30.12,South,171,0.0,1.0,89,0.00,,,0.05,Wunderground v.1.15,2013-08-10 10:20:00,
2013-08-10 05:25:00,61.8,58.5,30.12,South,171,0.0,1.0,89,0.00,,,0.05,Wunderground v.1.15,2013-08-10 10:25:00,
2013-08-10 05:35:00,61.9,58.6,30.11,South,171,1.0,1.0,89,0.00,,,0.05,Wunderground v.1.15,2013-08-10 10:35:00,
2013-08-10 05:40:00,61.7,58.4,30.10,South,171,0.0,1.0,89,0.00,,,0.05,Wunderground v.1.15,2013-08-10 10:40:00,
2013-08-10 05:50:00,61.4,58.1,30.11,South,171,0.0,1.0,89,0.00,,,0.05,Wunderground v.1.15,2013-08-10 10:50:00,
2013-08-10 06:00:00,61.1,57.8,30.11,South,171,0.0,4.0,89,0.00,,,0.05,Wunderground v.1.15,2013-08-10 11:00:00,
2013-08-10 06:10:00,60.9,57.6,30.11,South,171,0.0,4.0,89,0.00,,,0.05,Wunderground v.1.15,2013-08-10 11:10:00,
2013-08-10 06:20:00,61.1,57.8,30.11,South,171,3.0,3.0,89,0.00,,,0.05,Wunderground v.1.15,2013-08-10 11:20:00,
2013-08-10 06:25:00,61.2,57.9,30.11,South,172,3.0,4.0,89,0.00,,,0.05,Wunderground v.1.15,2013-08-10 11:25:00,
2013-08-10 06:30:00,61.4,58.1,30.11,South,172,3.0,3.0,89,0.00,,,0.05,Wunderground v.1.15,2013-08-10 11:30:00,
2013-08-10 06:40:00,61.4,58.1,30.11,South,172,1.0,1.0,89,0.00,,,0.05,Wunderground v.1.15,2013-08-10 11:40:00,
2013-08-10 06:50:00,61.2,57.9,30.11,South,172,0.0,4.0,89,0.00,,,0.05,Wunderground v.1.15,2013-08-10 11:50:00,
2013-08-10 07:00:00,61.1,57.8,30.11,South,172,0.0,4.0,89,0.00,,,0.05,Wunderground v.1.15,2013-08-10 12:00:00,
2013-08-10 07:10:00,61.4,58.4,30.11,South,172,0.0,4.0,90,0.00,,,0.05,Wunderground v.1.15,2013-08-10 12:10:00,
2013-08-10 07:20:00,62.3,59.3,30.11,SSE,168,1.0,4.0,90,0.00,,,0.05,Wunderground v.1.15,2013-08-10 12:20:00,
2013-08-10 07:25:00,62.7,59.7,30.11,South,175,1.0,4.0,90,0.00,,,0.05,Wunderground v.1.15,2013-08-10 12:25:00,
2013-08-10 07:30:00,63.2,60.2,30.11,South,170,1.0,4.0,90,0.00,,,0.05,Wunderground v.1.15,2013-08-10 12:30:00,
2013-08-10 07:40:00,64.0,61.0,30.11,South,186,1.0,4.0,90,0.00,,,0.05,Wunderground v.1.15,2013-08-10 12:40:00,
2013-08-10 07:50:00,64.0,60.7,30.11,SSE,168,3.0,4.0,89,0.00,,,0.05,Wunderground v.1.15,2013-08-10 12:50:00,
2013-08-10 08:00:00,63.8,60.2,30.11,South,170,4.0,4.0,88,0.00,,,0.05,Wunderground v.1.15,2013-08-10 13:00:00,
2013-08-10 08:05:00,63.9,60.3,30.11,South,183,4.0,4.0,88,0.00,,,0.05,Wunderground v.1.15,2013-08-10 13:05:00,
2013-08-10 08:15:00,64.1,60.2,30.11,South,188,4.0,5.0,87,0.00,,,0.05,Wunderground v.1.15,2013-08-10 13:15:00,
2013-08-10 08:20:00,64.3,60.3,30.11,South,182,4.0,4.0,87,0.00,,,0.05,Wunderground v.1.15,2013-08-10 13:20:00,
2013-08-10 08:30:00,64.6,60.3,30.11,South,183,3.0,4.0,86,0.00,,,0.05,Wunderground v.1.15,2013-08-10 13:30:00,
2013-08-10 08:40:00,65.0,60.4,30.10,South,171,3.0,4.0,85,0.00,,,0.05,Wunderground v.1.15,2013-08-10 13:40:00,
2013-08-10 08:50:00,65.7,61.1,30.11,South,182,4.0,4.0,85,0.00,,,0.05,Wunderground v.1.15,2013-08-10 13:50:00,
2013-08-10 09:00:00,66.1,60.8,30.11,South,184,3.0,4.0,83,0.00,,,0.05,Wunderground v.1.15,2013-08-10 14:00:00,
2013-08-10 09:05:00,66.2,60.5,30.11,South,188,3.0,4.0,82,0.00,,,0.05,Wunderground v.1.15,2013-08-10 14:05:00,
2013-08-10 09:10:00,66.4,60.7,30.11,SSW,198,3.0,4.0,82,0.00,,,0.05,Wunderground v.1.15,2013-08-10 14:10:00,
2013-08-10 09:20:00,66.9,60.9,30.11,South,172,3.0,4.0,81,0.00,,,0.05,Wunderground v.1.15,2013-08-10 14:20:00,
2013-08-10 09:30:00,67.8,61.4,30.11,South,187,4.0,4.0,80,0.00,,,0.05,Wunderground v.1.15,2013-08-10 14:30:00,
2013-08-10 09:40:00,68.5,61.4,30.11,SSW,194,4.0,6.0,78,0.00,,,0.05,Wunderground v.1.15,2013-08-10 14:40:00,
2013-08-10 09:45:00,69.2,62.4,30.11,South,170,4.0,6.0,79,0.00,,,0.05,Wunderground v.1.15,2013-08-10 14:45:00,
2013-08-10 09:55:00,71.4,63.4,30.11,SSW,197,4.0,6.0,76,0.00,,,0.05,Wunderground v.1.15,2013-08-10 14:55:00,
2013-08-10 10:05:00,72.0,63.6,30.11,SSE,162,6.0,7.0,75,0.00,,,0.05,Wunderground v.1.15,2013-08-10 15:05:00,
2013-08-10 10:15:00,71.9,63.2,30.12,SSW,196,5.0,8.0,74,0.00,,,0.05,Wunderground v.1.15,2013-08-10 15:15:00,
2013-08-10 10:20:00,71.7,62.6,30.12,SW,227,6.0,6.0,73,0.00,,,0.05,Wunderground v.1.15,2013-08-10 15:20:00,
2013-08-10 10:30:00,71.9,63.2,30.12,South,191,7.0,8.0,74,0.00,,,0.05,Wunderground v.1.15,2013-08-10 15:30:00,
2013-08-10 10:40:00,72.0,62.9,30.12,South,189,7.0,7.0,73,0.00,,,0.05,Wunderground v.1.15,2013-08-10 15:40:00,
2013-08-10 10:50:00,72.6,63.8,30.12,SSW,205,5.0,5.0,74,0.00,,,0.05,Wunderground v.1.15,2013-08-10 15:50:00,
2013-08-10 11:00:00,73.1,63.9,30.11,South,175,5.0,7.0,73,0.00,,,0.05,Wunderground v.1.15,2013-08-10 16:00:00,
2013-08-10 11:05:00,72.9,63.7,30.12,SSW,205,6.0,7.0,73,0.00,,,0.05,Wunderground v.1.15,2013-08-10 16:05:00,
2013-08-10 11:10:00,73.0,63.8,30.11,South,184,6.0,6.0,73,0.00,,,0.05,Wunderground v.1.15,2013-08-10 16:10:00,
2013-08-10 11:20:00,73.1,63.9,30.11,SSW,194,6.0,10.0,73,0.00,,,0.05,Wunderground v.1.15,2013-08-10 16:20:00,
2013-08-10 11:30:00,73.7,65.3,30.11,SSW,198,6.0,6.0,75,0.00,,,0.05,Wunderground v.1.15,2013-08-10 16:30:00,
2013-08-10 11:40:00,74.8,66.0,30.11,SSW,207,6.0,7.0,74,0.00,,,0.05,Wunderground v.1.15,2013-08-10 16:40:00,
2013-08-10 11:50:00,76.2,66.5,30.10,South,178,5.0,5.0,72,0.00,,,0.05,Wunderground v.1.15,2013-08-10 16:50:00,
2013-08-10 11:55:00,76.9,66.0,30.10,South,179,5.0,7.0,69,0.00,,,0.05,Wunderground v.1.15,2013-08-10 16:55:00,
2013-08-10 12:00:00,77.1,65.7,30.10,South,188,5.0,6.0,68,0.00,,,0.05,Wunderground v.1.15,2013-08-10 17:00:00,
2013-08-10 12:10:00,77.6,67.0,30.09,SSE,165,6.0,11.0,70,0.00,,,0.05,Wunderground v.1.15,2013-08-10 17:10:00,
2013-08-10 12:20:00,78.2,66.8,30.09,SSE,162,7.0,7.0,68,0.00,,,0.05,Wunderground v.1.15,2013-08-10 17:20:00,
2013-08-10 12:30:00,79.3,68.2,30.09,SSE,157,5.0,11.0,69,0.00,,,0.05,Wunderground v.1.15,2013-08-10 17:30:00,
2013-08-10 12:40:00,79.8,67.4,30.09,SSE,151,5.0,5.0,66,0.00,,,0.05,Wunderground v.1.15,2013-08-10 17:40:00,
2013-08-10 12:45:00,80.1,67.7,30.08,South,178,5.0,11.0,66,0.00,,,0.05,Wunderground v.1.15,2013-08-10 17:45:00,
2013-08-10 12:55:00,80.1,68.2,30.08,SSW,204,5.0,11.0,67,0.00,,,0.05,Wunderground v.1.15,2013-08-10 17:55:00,
2013-08-10 13:00:00,80.4,68.0,30.08,SSE,151,5.0,11.0,66,0.00,,,0.05,Wunderground v.1.15,2013-08-10 18:00:00,
2013-08-10 13:10:00,81.0,68.6,30.08,SE,144,5.0,5.0,66,0.00,,,0.05,Wunderground v.1.15,2013-08-10 18:10:00,
2013-08-10 13:20:00,81.2,67.4,30.08,SSE,160,5.0,11.0,63,0.00,,,0.05,Wunderground v.1.15,2013-08-10 18:20:00,
2013-08-10 13:30:00,80.8,68.4,30.07,South,176,5.0,11.0,66,0.00,,,0.05,Wunderground v.1.15,2013-08-10 18:30:00,
2013-08-10 13:40:00,81.1,68.7,30.07,South,188,5.0,5.0,66,0.00,,,0.05,Wunderground v.1.15,2013-08-10 18:40:00,
2013-08-10 13:45:00,82.0,68.2,30.06,SSW,194,5.0,6.0,63,0.00,,,0.05,Wunderground v.1.15,2013-08-10 18:45:00,
2013-08-10 13:50:00,82.2,66.4,30.06,SSW,205,7.0,11.0,59,0.00,,,0.05,Wunderground v.1.15,2013-08-10 18:50:00,
2013-08-10 14:00:00,82.8,66.5,30.06,South,177,8.0,11.0,58,0.00,,,0.05,Wunderground v.1.15,2013-08-10 19:00:00,
2013-08-10 14:10:00,82.3,66.5,30.06,SSW,203,10.0,13.0,59,0.00,,,0.05,Wunderground v.1.15,2013-08-10 19:10:00,
2013-08-10 14:20:00,81.6,65.9,30.06,South,188,9.0,11.0,59,0.00,,,0.05,Wunderground v.1.15,2013-08-10 19:20:00,
2013-08-10 14:30:00,82.7,65.9,30.05,SSW,205,10.0,11.0,57,0.00,,,0.05,Wunderground v.1.15,2013-08-10 19:30:00,
2013-08-10 14:35:00,83.6,68.2,30.05,SSW,206,9.0,11.0,60,0.00,,,0.05,Wunderground v.1.15,2013-08-10 19:35:00,
2013-08-10 14:45:00,84.2,64.1,30.05,South,190,8.0,11.0,51,0.00,,,0.05,Wunderground v.1.15,2013-08-10 19:45:00,
2013-08-10 14:50:00,84.2,65.8,30.04,SSW,200,9.0,12.0,54,0.00,,,0.05,Wunderground v.1.15,2013-08-10 19:50:00,
2013-08-10 15:00:00,83.6,65.7,30.04,SSW,198,11.0,11.0,55,0.00,,,0.05,Wunderground v.1.15,2013-08-10 20:00:00,
2013-08-10 15:10:00,82.2,66.0,30.04,South,169,7.0,7.0,58,0.00,,,0.05,Wunderground v.1.15,2013-08-10 20:10:00,
2013-08-10 15:20:00,81.6,65.9,30.04,SSW,211,7.0,12.0,59,0.00,,,0.05,Wunderground v.1.15,2013-08-10 20:20:00,
2013-08-10 15:30:00,82.1,66.4,30.03,South,190,11.0,12.0,59,0.00,,,0.05,Wunderground v.1.15,2013-08-10 20:30:00,
2013-08-10 15:35:00,83.0,67.7,30.03,South,188,12.0,12.0,60,0.00,,,0.05,Wunderground v.1.15,2013-08-10 20:35:00,
2013-08-10 15:45:00,83.9,67.0,30.02,SSW,195,10.0,13.0,57,0.00,,,0.05,Wunderground v.1.15,2013-08-10 20:45:00,
2013-08-10 15:50:00,83.9,66.5,30.02,South,178,11.0,11.0,56,0.00,,,0.05,Wunderground v.1.15,2013-08-10 20:50:00,
2013-08-10 16:00:00,83.7,66.3,30.02,SSW,205,11.0,16.0,56,0.00,,,0.05,Wunderground v.1.15,2013-08-10 21:00:00,
2013-08-10 16:10:00,83.3,65.4,30.01,SW,218,13.0,13.0,55,0.00,,,0.05,Wunderground v.1.15,2013-08-10 21:10:00,
2013-08-10 16:20:00,84.0,66.1,30.01,SW,215,10.0,12.0,55,0.00,,,0.05,Wunderground v.1.15,2013-08-10 21:20:00,
2013-08-10 16:30:00,84.3,66.4,30.01,South,169,11.0,11.0,55,0.00,,,0.05,Wunderground v.1.15,2013-08-10 21:30:00,
2013-08-10 16:35:00,83.9,66.0,30.00,South,185,12.0,12.0,55,0.00,,,0.05,Wunderground v.1.15,2013-08-10 21:35:00,
2013-08-10 16:45:00,83.6,65.7,30.00,SSW,194,12.0,12.0,55,0.00,,,0.05,Wunderground v.1.15,2013-08-10 21:45:00,
2013-08-10 16:50:00,83.2,65.4,30.00,SSW,200,12.0,12.0,55,0.00,,,0.05,Wunderground v.1.15,2013-08-10 21:50:00,
2013-08-10 17:00:00,81.0,64.3,30.00,SSW,194,12.0,12.0,57,0.00,,,0.05,Wunderground v.1.15,2013-08-10 22:00:00,
2013-08-10 17:10:00,80.7,64.5,30.00,SSW,208,11.0,12.0,58,0.00,,,0.05,Wunderground v.1.15,2013-08-10 22:10:00,
2013-08-10 17:20:00,81.3,65.6,29.99,SSW,205,12.0,14.0,59,0.00,,,0.05,Wunderground v.1.15,2013-08-10 22:20:00,
2013-08-10 17:30:00,83.0,66.2,29.99,SSW,211,12.0,15.0,57,0.00,,,0.05,Wunderground v.1.15,2013-08-10 22:30:00,
2013-08-10 17:35:00,82.9,65.1,29.99,South,180,12.0,15.0,55,0.00,,,0.05,Wunderground v.1.15,2013-08-10 22:35:00,
2013-08-10 17:45:00,82.8,65.0,29.99,SSW,195,12.0,20.0,55,0.00,,,0.05,Wunderground v.1.15,2013-08-10 22:45:00,
2013-08-10 17:50:00,82.7,65.4,29.99,SSW,201,12.0,12.0,56,0.00,,,0.05,Wunderground v.1.15,2013-08-10 22:50:00,
2013-08-10 18:00:00,82.9,66.1,29.99,SSW,193,9.0,21.0,57,0.00,,,0.05,Wunderground v.1.15,2013-08-10 23:00:00,
2013-08-10 18:10:00,82.4,64.6,29.99,South,171,11.0,11.0,55,0.00,,,0.05,Wunderground v.1.15,2013-08-10 23:10:00,
2013-08-10 18:20:00,82.1,64.8,29.99,SSW,198,11.0,11.0,56,0.00,,,0.05,Wunderground v.1.15,2013-08-10 23:20:00,
2013-08-10 18:25:00,82.1,64.8,29.99,South,171,11.0,21.0,56,0.00,,,0.05,Wunderground v.1.15,2013-08-10 23:25:00,
2013-08-10 18:35:00,81.9,65.2,29.99,SSW,205,9.0,21.0,57,0.00,,,0.05,Wunderground v.1.15,2013-08-10 23:35:00,
2013-08-10 18:40:00,81.6,64.9,29.99,SSW,192,10.0,10.0,57,0.00,,,0.05,Wunderground v.1.15,2013-08-10 23:40:00,
2013-08-10 18:50:00,81.5,64.8,29.98,SSW,199,9.0,21.0,57,0.00,,,0.05,Wunderground v.1.15,2013-08-10 23:50:00,
2013-08-10 19:00:00,81.3,64.6,29.98,SSE,161,9.0,9.0,57,0.00,,,0.05,Wunderground v.1.15,2013-08-11 00:00:00,
2013-08-10 19:10:00,81.0,64.8,29.98,SSW,204,8.0,21.0,58,0.00,,,0.05,Wunderground v.1.15,2013-08-11 00:10:00,
2013-08-10 19:15:00,80.8,64.6,29.98,SSW,202,8.0,21.0,58,0.00,,,0.05,Wunderground v.1.15,2013-08-11 00:15:00,
2013-08-10 19:20:00,80.6,64.9,29.98,SSW,193,9.0,9.0,59,0.00,,,0.05,Wunderground v.1.15,2013-08-11 00:20:00,
2013-08-10 19:30:00,80.0,64.4,29.98,SSW,195,8.0,8.0,59,0.00,,,0.05,Wunderground v.1.15,2013-08-11 00:30:00,
2013-08-10 19:40:00,79.4,64.3,29.98,SSW,204,8.0,21.0,60,0.00,,,0.05,Wunderground v.1.15,2013-08-11 00:40:00,
2013-08-10 19:50:00,78.8,64.2,29.97,South,181,7.0,21.0,61,0.00,,,0.05,Wunderground v.1.15,2013-08-11 00:50:00,
2013-08-10 20:00:00,78.0,64.4,29.97,SSW,202,7.0,7.0,63,0.00,,,0.05,Wunderground v.1.15,2013-08-11 01:00:00,
2013-08-10 20:10:00,77.1,64.0,29.97,SSW,209,7.0,21.0,64,0.00,,,0.05,Wunderground v.1.15,2013-08-11 01:10:00,
2013-08-10 20:20:00,76.7,63.6,29.97,South,190,7.0,7.0,64,0.00,,,0.05,Wunderground v.1.15,2013-08-11 01:20:00,
2013-08-10 20:30:00,76.2,63.6,29.97,South,190,5.0,21.0,65,0.00,,,0.05,Wunderground v.1.15,2013-08-11 01:30:00,
2013-08-10 20:40:00,75.6,63.4,29.97,SSE,163,5.0,5.0,66,0.00,,,0.05,Wunderground v.1.15,2013-08-11 01:40:00,
2013-08-10 20:45:00,75.3,63.6,29.97,South,177,5.0,21.0,67,0.00,,,0.05,Wunderground v.1.15,2013-08-11 01:45:00,
2013-08-10 20:55:00,74.8,63.5,29.96,SSW,198,5.0,21.0,68,0.00,,,0.05,Wunderground v.1.15,2013-08-11 01:55:00,
2013-08-10 21:05:00,74.2,63.4,29.97,South,169,5.0,21.0,69,0.00,,,0.05,Wunderground v.1.15,2013-08-11 02:05:00,
2013-08-10 21:10:00,73.8,63.4,29.97,South,180,4.0,4.0,70,0.00,,,0.05,Wunderground v.1.15,2013-08-11 02:10:00,
2013-08-10 21:20:00,72.9,63.3,29.97,SSE,165,3.0,3.0,72,0.00,,,0.05,Wunderground v.1.15,2013-08-11 02:20:00,
2013-08-10 21:30:00,71.9,63.2,29.97,SSE,160,2.0,21.0,74,0.00,,,0.05,Wunderground v.1.15,2013-08-11 02:30:00,
2013-08-10 21:40:00,71.0,63.1,29.97,SSE,160,2.0,2.0,76,0.00,,,0.05,Wunderground v.1.15,2013-08-11 02:40:00,
2013-08-10 21:50:00,70.3,63.1,29.98,SSE,164,0.0,21.0,78,0.00,,,0.05,Wunderground v.1.15,2013-08-11 02:50:00,
2013-08-10 21:55:00,69.9,62.7,29.98,SSE,164,1.0,21.0,78,0.00,,,0.05,Wunderground v.1.15,2013-08-11 02:55:00,
2013-08-10 22:05:00,69.5,63.1,29.99,SSE,164,2.0,21.0,80,0.00,,,0.05,Wunderground v.1.15,2013-08-11 03:05:00,
2013-08-10 22:15:00,69.4,63.3,29.99,SSE,165,2.0,21.0,81,0.00,,,0.05,Wunderground v.1.15,2013-08-11 03:15:00,
2013-08-10 22:25:00,69.2,63.1,29.99,SSE,162,2.0,21.0,81,0.00,,,0.05,Wunderground v.1.15,2013-08-11 03:25:00,
2013-08-10 22:30:00,69.1,63.0,29.99,South,173,2.0,21.0,81,0.00,,,0.05,Wunderground v.1.15,2013-08-11 03:30:00,
2013-08-10 22:40:00,68.8,63.1,29.99,SSE,162,2.0,2.0,82,0.00,,,0.05,Wunderground v.1.15,2013-08-11 03:40:00,
2013-08-10 22:55:00,68.5,63.1,29.99,SSE,159,2.0,21.0,83,0.00,,,0.05,Wunderground v.1.15,2013-08-11 03:55:00,
2013-08-10 23:00:00,68.4,63.0,29.99,SSE,159,1.0,21.0,83,0.00,,,0.05,Wunderground v.1.15,2013-08-11 04:00:00,
2013-08-10 23:05:00,68.3,63.3,29.99,SSE,162,2.0,21.0,84,0.00,,,0.05,Wunderground v.1.15,2013-08-11 04:05:00,
2013-08-10 23:10:00,68.3,63.3,29.99,South,184,3.0,3.0,84,0.00,,,0.05,Wunderground v.1.15,2013-08-11 04:10:00,
2013-08-10 23:15:00,68.3,63.3,29.99,South,173,3.0,21.0,84,0.00,,,0.05,Wunderground v.1.15,2013-08-11 04:15:00,
2013-08-10 23:20:00,68.3,63.3,29.99,South,177,3.0,3.0,84,0.00,,,0.05,Wunderground v.1.15,2013-08-11 04:20:00,
2013-08-10 23:25:00,68.3,63.3,29.99,South,173,3.0,21.0,84,0.00,,,0.05,Wunderground v.1.15,2013-08-11 04:25:00,
2013-08-10 23:30:00,68.3,63.3,29.99,South,183,3.0,21.0,84,0.00,,,0.05,Wunderground v.1.15,2013-08-11 04:30:00,
2013-08-10 23:40:00,68.2,63.2,30.00,South,184,2.0,2.0,84,0.00,,,0.05,Wunderground v.1.15,2013-08-11 04:40:00,
2013-08-10 23:45:00,68.1,63.1,29.99,South,176,2.0,21.0,84,0.00,,,0.05,Wunderground v.1.15,2013-08-11 04:45:00,
2013-08-10 23:55:00,68.1,63.1,29.99,South,187,3.0,4.0,84,0.00,,,0.05,Wunderground v.1.15,2013-08-11 04:55:00,